Escanaba, MI

6:42 AM EST on February 10, 2016 (GMT -0500)
Delta County

Weather History for KESC - January, 2013

Change the Weather History Date:

Thursday, January 17, 2013

  Actual Average Record
Temperature  
Mean Temperature 10 °F -  
Max Temperature 19 °F 25 °F 42 °F (1961)
Min Temperature 1 °F 8 °F -16 °F (1954)
Degree Days  
Heating Degree Days 55    
Moisture  
Dew Point -2 °F    
Average Humidity 57    
Maximum Humidity 85    
Minimum Humidity 38    
Precipitation  
Precipitation 0.00 in - - ()
Sea Level Pressure  
Sea Level Pressure 30.23 in    
Wind  
Wind Speed 9 mph (NW)    
Max Wind Speed 18 mph    
Max Gust Speed 26 mph    
Visibility 10 miles    
Events      
Averages and records for this station are not official NWS values.
T = Trace of Precipitation, MM = Missing Value Source: NWS Daily Summary

Daily Weather History Graph

Daily Weather History Graph

Search for Another Location

Airport or City:

Trip Planner

Search our weather history database for the weather conditions in past years. The results will help you decide how hot, cold, wet, or windy it might be!

Date:

Astronomy

Jan. 17, 2013 Rise Set
Actual Time 8:23 AM EST 5:33 PM EST
Civil Twilight 7:50 AM EST 6:06 PM EST
Nautical Twilight 7:14 AM EST 6:43 PM EST
Astronomical Twilight 6:38 AM EST 7:18 PM EST
Moon 11:07 AM EST (1/17) No Moon Set
Length of Visible Light 10h 15m
Length of Day
9h 09m
Waxing Crescent, 37% of the Moon is Illuminated
Jan 17
Waxing Crescent
Jan 18
First Quarter
Jan 26
Full
Feb 3
Last Quarter
Feb 10
New

Hourly Weather History & Observations

Time (EST) Temp. Windchill Dew Point Humidity Pressure Visibility Wind Dir Wind Speed Gust Speed Precip Events Conditions
12:15 AM 19.4 °F 7.9 °F 8.6 °F 63% 30.04 in 10.0 mi North 10.4 mph 18.4 mph N/A   Overcast
12:35 AM 17.6 °F 5.7 °F 8.6 °F 68% 30.05 in 10.0 mi NNW 10.4 mph - N/A   Overcast
12:55 AM 17.6 °F 7.3 °F 8.6 °F 68% 30.05 in 10.0 mi NNW 8.1 mph - N/A   Mostly Cloudy
1:15 AM 17.6 °F 7.3 °F 3.2 °F 53% 30.05 in 10.0 mi North 8.1 mph - N/A   Partly Cloudy
1:35 AM 17.6 °F 8.2 °F 3.2 °F 53% 30.07 in 10.0 mi NNW 6.9 mph - N/A   Clear
1:55 AM 15.8 °F 6.1 °F 3.2 °F 58% 30.10 in 10.0 mi North 6.9 mph - N/A   Mostly Cloudy
2:15 AM 15.8 °F 4.2 °F 3.2 °F 58% 30.11 in 10.0 mi North 9.2 mph - N/A   Overcast
2:35 AM 15.8 °F 5.1 °F 3.2 °F 58% 30.12 in 10.0 mi North 8.1 mph - N/A   Overcast
2:55 AM 15.8 °F 6.1 °F 5.0 °F 62% 30.14 in 10.0 mi NNW 6.9 mph - N/A   Overcast
3:15 AM 14.0 °F 1.2 °F 1.4 °F 57% 30.15 in 10.0 mi NNW 10.4 mph - N/A   Overcast
3:35 AM 12.2 °F -1.0 °F 1.4 °F 62% 30.16 in 10.0 mi North 10.4 mph - N/A   Overcast
3:55 AM 12.2 °F -1.0 °F 1.4 °F 62% 30.17 in 10.0 mi North 10.4 mph - N/A   Overcast
4:35 AM 10.4 °F -2.4 °F -2.2 °F 57% 30.18 in 10.0 mi North 9.2 mph - N/A   Scattered Clouds
4:55 AM 10.4 °F -2.4 °F -2.2 °F 57% 30.18 in 10.0 mi NW 9.2 mph - N/A   Clear
5:15 AM 8.6 °F -3.7 °F -4.0 °F 57% 30.19 in 10.0 mi NW 8.1 mph - N/A   Clear
5:35 AM 8.6 °F 0.1 °F -5.8 °F 52% 30.19 in 10.0 mi NW 4.6 mph - N/A   Clear
5:55 AM 8.6 °F -1.3 °F -4.0 °F 57% 30.19 in 10.0 mi NNW 5.8 mph - N/A   Clear
6:15 AM 6.8 °F -2.0 °F -5.8 °F 56% 30.20 in 10.0 mi NW 4.6 mph - N/A   Clear
6:35 AM 6.8 °F -0.1 °F -4.0 °F 61% 30.21 in 10.0 mi NW 3.5 mph - N/A   Clear
6:55 AM 6.8 °F -0.1 °F -2.2 °F 67% 30.21 in 10.0 mi WNW 3.5 mph - N/A   Clear
7:15 AM 5.0 °F - -4.0 °F 66% 30.22 in 10.0 mi Calm Calm - N/A   Clear
7:35 AM 5.0 °F - -4.0 °F 66% 30.22 in 10.0 mi Calm Calm - N/A   Clear
7:55 AM 3.2 °F - -2.2 °F 78% 30.24 in 10.0 mi Calm Calm - N/A   Clear
8:15 AM 1.4 °F - -4.0 °F 78% 30.25 in 10.0 mi Calm Calm - N/A   Clear
8:35 AM 1.4 °F - -5.8 °F 72% 30.26 in 10.0 mi Calm Calm - N/A   Clear
8:55 AM 1.4 °F - -2.2 °F 85% 30.27 in 10.0 mi Calm Calm - N/A   Clear
9:15 AM 3.2 °F - -2.2 °F 78% 30.28 in 10.0 mi Calm Calm - N/A   Clear
9:35 AM 6.8 °F -2.0 °F -0.4 °F 72% 30.29 in 10.0 mi WSW 4.6 mph - N/A   Clear
9:55 AM 6.8 °F -4.8 °F -0.4 °F 72% 30.29 in 10.0 mi West 6.9 mph - N/A   Clear
10:15 AM 8.6 °F -2.6 °F -0.4 °F 67% 30.29 in 10.0 mi West 6.9 mph - N/A   Clear
10:35 AM 10.4 °F -3.3 °F -0.4 °F 62% 30.29 in 10.0 mi West 10.4 mph - N/A   Clear
10:55 AM 10.4 °F -3.3 °F -2.2 °F 57% 30.28 in 10.0 mi WNW 10.4 mph - N/A   Partly Cloudy
11:15 AM 10.4 °F -4.1 °F -2.2 °F 57% 30.28 in 10.0 mi West 11.5 mph 19.6 mph N/A   Mostly Cloudy
11:35 AM 12.2 °F -3.7 °F -0.4 °F 57% 30.27 in 10.0 mi West 15.0 mph 18.4 mph N/A   Overcast
11:55 AM 12.2 °F -0.2 °F -0.4 °F 57% 30.28 in 10.0 mi West 9.2 mph 18.4 mph N/A   Overcast
12:15 PM 12.2 °F -4.3 °F -2.2 °F 53% 30.26 in 10.0 mi West 16.1 mph 21.9 mph N/A   Overcast
12:35 PM 12.2 °F -1.0 °F -2.2 °F 53% 30.26 in 10.0 mi WNW 10.4 mph 19.6 mph N/A   Overcast
12:55 PM 12.2 °F -2.5 °F -5.8 °F 45% 30.24 in 10.0 mi NW 12.7 mph 19.6 mph N/A   Overcast
1:15 PM 12.2 °F -3.1 °F -2.2 °F 53% 30.24 in 10.0 mi WNW 13.8 mph 21.9 mph N/A   Overcast
1:35 PM 12.2 °F -3.1 °F -5.8 °F 45% 30.24 in 10.0 mi NW 13.8 mph 24.2 mph N/A   Mostly Cloudy
1:55 PM 14.0 °F -1.4 °F -5.8 °F 41% 30.23 in 10.0 mi WNW 15.0 mph - N/A   Scattered Clouds
2:15 PM 15.8 °F 1.4 °F -4.0 °F 41% 30.22 in 10.0 mi West 13.8 mph 18.4 mph N/A   Partly Cloudy
2:35 PM 15.8 °F 2.7 °F -5.8 °F 38% 30.22 in 10.0 mi WNW 11.5 mph 17.3 mph N/A   Scattered Clouds
2:55 PM 15.8 °F 0.9 °F -5.8 °F 38% 30.23 in 10.0 mi NW 15.0 mph 26.5 mph N/A   Scattered Clouds
3:15 PM 15.8 °F 3.4 °F -5.8 °F 38% 30.23 in 10.0 mi NNW 10.4 mph 23.0 mph N/A   Mostly Cloudy
3:35 PM 15.8 °F -0.2 °F -5.8 °F 38% 30.22 in 10.0 mi WNW 17.3 mph 24.2 mph N/A   Overcast
3:55 PM 15.8 °F -0.2 °F -5.8 °F 38% 30.23 in 10.0 mi WNW 17.3 mph - N/A   Overcast
4:15 PM 15.8 °F -0.6 °F -5.8 °F 38% 30.23 in 10.0 mi WNW 18.4 mph 24.2 mph N/A   Overcast
4:35 PM 14.0 °F -1.4 °F -7.6 °F 38% 30.24 in 10.0 mi WNW 15.0 mph 26.5 mph N/A   Overcast
4:55 PM 14.0 °F 0.5 °F -5.8 °F 41% 30.25 in 10.0 mi NNW 11.5 mph 20.7 mph N/A   Mostly Cloudy
5:15 PM 12.2 °F -1.0 °F -5.8 °F 45% 30.26 in 10.0 mi NW 10.4 mph - N/A   Mostly Cloudy
5:35 PM 12.2 °F 0.7 °F -5.8 °F 45% 30.27 in 10.0 mi NNW 8.1 mph - N/A   Partly Cloudy
5:55 PM 10.4 °F -3.3 °F -4.0 °F 52% 30.28 in 10.0 mi NW 10.4 mph - N/A   Clear
6:15 PM 10.4 °F -4.1 °F -2.2 °F 57% 30.29 in 10.0 mi NW 11.5 mph - N/A   Clear
6:35 PM 10.4 °F -1.5 °F -2.2 °F 57% 30.30 in 10.0 mi NW 8.1 mph - N/A   Clear
6:55 PM 10.4 °F -2.4 °F -2.2 °F 57% 30.30 in 10.0 mi WNW 9.2 mph 17.3 mph N/A   Clear
7:15 PM 8.6 °F -5.5 °F -2.2 °F 62% 30.30 in 10.0 mi WNW 10.4 mph - N/A   Clear
7:35 PM 8.6 °F -1.3 °F -4.0 °F 57% 30.31 in 10.0 mi WNW 5.8 mph - N/A   Clear
7:55 PM 8.6 °F -3.7 °F -2.2 °F 62% 30.32 in 10.0 mi WNW 8.1 mph - N/A   Clear
8:15 PM 8.6 °F -4.7 °F -4.0 °F 57% 30.32 in 10.0 mi WNW 9.2 mph - N/A   Clear
8:35 PM 8.6 °F -1.3 °F -4.0 °F 57% 30.33 in 10.0 mi West 5.8 mph - N/A   Clear
8:55 PM 8.6 °F -3.7 °F -2.2 °F 62% 30.33 in 10.0 mi West 8.1 mph - N/A   Clear
9:15 PM 6.8 °F -2.0 °F -5.8 °F 56% 30.34 in 10.0 mi West 4.6 mph - N/A   Clear
9:55 PM 5.0 °F -5.6 °F -4.0 °F 66% 30.34 in 10.0 mi WSW 5.8 mph - N/A   Scattered Clouds